Flag for Germany Weather past 2 weeks in Bingen am Rhein, Rhineland-Palatinate, Germany

Now
32 °F

Snow. Ice fog.


Feels Like: 22 °F
Forecast: 30 / 39 °F
Wind: 13 mph from West

Location: Hahn

Current Time: Jan 30, 2015 at 1:57:08 AM

Latest Report: Jan 30, 2015 at 1:20 AM


Visibility: 1 mi

Pressure: 28.68 "Hg

Humidity: 100%

Dew point: 32 °F

Location of Bingen am RheinLocation

Historic Weather in Bingen am Rhein — Graph

°F

Bingen am Rhein temperature yesterday

Maximum temperature yesterday: 34 °F (at 11:50 AM)
Minimum temperature yesterday: 30 °F (at 2:20 AM)
Average temperature yesterday: 32 °F

Past Weeks' High & Low Weather Summary

 TemperatureHumidityPressure
High48 °F (Jan 15, 2:20 PM)100% (Jan 16, 12:20 AM)30.39 "Hg (Jan 16, 12:20 AM)
Low23 °F (Jan 20, 9:50 PM)65% (Jan 18, 1:50 PM)28.68 "Hg (Jan 30, 12:20 AM)
Average31 °F95%29.89 "Hg
* Reported Jan 15 12:20 AM — Jan 30 12:50 AM, Bingen am Rhein, Weather by CustomWeather, © 2014

Note: Actual official high and low records may vary slightly from our data, if they occured in-between our weather recording intervals... More about our weather records

Advertising

Bingen am Rhein weather history for previous 24 hours

 ConditionsComfort  
Time TempWeatherWind HumidityBarometerVisibility
12:50 AM
Jan 30
32 °FLight snow. Ice fog.15 mph100%28.68 "Hg1 mi
12:20 AM32 °FLight snow. Ice fog.13 mph100%28.68 "Hg2 mi
11:50 PM
Jan 29
32 °FLight snow. Ice fog.10 mph100%28.71 "Hg3 mi
11:20 PM32 °FLight snow. Partly cloudy.9 mph100%28.71 "Hg4 mi
10:50 PM32 °FLight snow. Ice fog.8 mph100%28.71 "Hg1 mi
10:20 PM32 °FHeavy snow. Dense fog.10 mph100%28.74 "Hg1 mi
9:50 PM32 °FChilly.10 mph100%28.77 "Hg1 mi
9:20 PM32 °FSnow. Ice fog.12 mph100%28.77 "Hg1 mi
8:50 PM34 °FSnow. Fog.14 mph93%28.80 "Hg1 mi
8:20 PM34 °FLight snow. Fog.16 mph93%28.82 "Hg2 mi
7:50 PM34 °FLight snow. Fog.17 mph93%28.82 "Hg2 mi
7:20 PM34 °FLight snow. Fog.13 mph93%28.85 "Hg1 mi
6:50 PM34 °FLight snow. Fog.12 mph93%28.88 "Hg1 mi
6:20 PM34 °FLight snow. Passing clouds.10 mph93%28.91 "Hg2 mi
6:03 PM34 °FLight snow. Fog.12 mph93%28.91 "Hg2 mi
5:50 PM34 °FLight snow. Fog.14 mph93%28.94 "Hg3 mi
5:20 PM34 °FLight snow. Mostly cloudy.17 mph93%28.94 "Hg4 mi
5:00 PM34 °FLight snow. Fog.15 mph93%28.97 "Hg3 mi
4:50 PM34 °FLight snow. Fog.15 mph93%28.97 "Hg2 mi
4:20 PM34 °FLight snow. Fog.13 mph93%29.00 "Hg2 mi
3:53 PM34 °FLight snow. Fog.13 mph93%29.03 "Hg3 mi
3:20 PM34 °FLight snow. Partly sunny.16 mph87%29.06 "HgN/A
2:50 PM34 °FScattered showers. Partly sunny.15 mph87%29.09 "HgN/A
2:20 PM34 °FPartly sunny.13 mph87%29.12 "HgN/A
1:50 PM34 °FSnow flurries. Partly sunny.13 mph87%29.15 "HgN/A
1:20 PM34 °FScattered clouds.12 mph93%29.18 "HgN/A
12:50 PM34 °FSnow flurries. Partly sunny.15 mph87%29.21 "Hg4 mi
12:20 PM34 °FScattered showers. Partly sunny.16 mph93%29.21 "HgN/A
11:50 AM34 °FSnow flurries. Partly sunny.16 mph87%29.24 "HgN/A
11:20 AM32 °FPartly sunny.20 mph93%29.27 "HgN/A
10:50 AM32 °FSnow flurries. Partly sunny.18 mph93%29.27 "HgN/A
10:20 AM32 °FSnow flurries. Ice fog.16 mph93%29.30 "Hg2 mi
9:50 AM32 °FLight snow. Ice fog.17 mph93%29.30 "Hg2 mi
9:20 AM30 °FLight snow. Ice fog.13 mph100%29.33 "Hg2 mi
8:50 AM30 °FSnow. Ice fog.12 mph100%29.33 "Hg1 mi
8:20 AM32 °FLight snow. Partly sunny.15 mph87%29.36 "Hg2 mi
7:51 AM32 °FSnow flurries. Passing clouds.16 mph87%29.36 "Hg5 mi
7:20 AM30 °FPassing clouds.16 mph93%29.39 "HgN/A
6:50 AM30 °FPassing clouds.16 mph93%29.39 "HgN/A
6:20 AM30 °FPassing clouds.15 mph93%29.42 "HgN/A
5:50 AM30 °FPartly cloudy.12 mph93%29.42 "HgN/A
5:20 AM30 °FPassing clouds.13 mph93%29.42 "HgN/A
4:50 AM30 °FPassing clouds.13 mph86%29.45 "HgN/A
4:20 AM30 °FPassing clouds.14 mph86%29.45 "HgN/A
3:50 AM30 °FClear.14 mph86%29.45 "Hg10 mi
3:20 AM30 °FPassing clouds.14 mph86%29.47 "HgN/A
2:50 AM30 °FPassing clouds.15 mph86%29.47 "HgN/A
2:20 AM30 °FPassing clouds.16 mph93%29.47 "HgN/A
1:50 AM32 °FPassing clouds.17 mph87%29.47 "HgN/A
1:20 AM32 °FPassing clouds.17 mph87%29.50 "HgN/A
Weather by CustomWeather, © 2014

See weather overviewHow to use our weather pages